Weather observations for the past three days for
Mountain View, Moffett Field
Imperial (Metric)
Date Time (pdt) Wind (mph) Vis. (mi.) Weather Sky Cond. Temperature (ºF) Relative Humidity Wind Chill (°F) Heat Index (°F) Pressure Precipitation (in)
Air Dwpt 6 hour altimeter (in) sea level (mb) 1 hr 3 hr 6 hr
Max. Min.
20 18:55 N 14 10.00 Fair CLR 69.8 59 69% 29.93 0.0
20 18:35 N 14 10.00 Fair CLR 69.8 59 69% 29.93 0.0
20 18:15 N 13 9.00 Fair CLR 71.6 59 65% 29.92 0.0
20 17:55 N 13 10.00 Fair CLR 71.6 59 65% 29.92 0.0
20 17:35 N 13 10.00 Fair CLR 71.6 59 65% 29.92 0.0
20 17:15 N 14 10.00 Fair CLR 71.6 59 65% 29.92 0.0
20 16:55 N 15 9.00 Fair CLR 71.6 59 65% 29.92 0.0
20 16:35 N 16 9.00 Fair CLR 73.4 59 61% 29.92 0.0
20 16:15 N 17 9.00 Fair CLR 73.4 59 61% 29.93 0.0
20 15:55 N 17 9.00 Fair CLR 73.4 59 61% 29.93 0.0
20 15:35 N 16 9.00 Fair CLR 75.2 59 57% 78 29.93 0.0
20 15:15 N 15 9.00 Fair CLR 73.4 60.8 65% 29.93 0.0
20 14:55 N 16 9.00 Fair CLR 73.4 60.8 65% 29.94 0.0
20 14:35 N 14 9.00 Fair CLR 73.4 60.8 65% 29.94 0.0
20 14:15 N 15 9.00 Fair CLR 73.4 59 61% 29.94 0.0
20 13:55 NW 13 9.00 Fair CLR 73.4 57.2 57% 29.94 0.0
20 13:35 N 13 9.00 Fair CLR 73.4 59 61% 29.94 0.0
20 13:15 N 10 9.00 Fair CLR 73.4 59 61% 29.95 0.0
20 12:55 N 12 9.00 Fair CLR 73.4 59 61% 29.95 0.0
20 12:35 N 9 9.00 Fair CLR 75.2 59 57% 78 29.95 0.0
20 12:15 N 9 9.00 Fair CLR 73.4 57.2 57% 29.95 0.0
20 11:55 N 8 9.00 Fair CLR 71.6 59 65% 29.95 0.0
20 11:35 N 8 9.00 Fair CLR 71.6 59 65% 29.95 0.0
20 11:15 N 6 9.00 Fair CLR 71.6 59 65% 29.95 0.0
20 10:55 N 7 9.00 Fair CLR 71.6 59 65% 29.95 0.0
20 10:35 Vrbl 3 9.00 Fair CLR 69.8 59 69% 29.95 0.0
20 10:15 Vrbl 5 9.00 Fair CLR 69.8 59 69% 29.95 0.0
20 09:55 Vrbl 6 8.00 Fair CLR 68 59 73% 29.96 0.0
20 09:35 N 7 8.00 Fair CLR 68 59 73% 29.95 0.0
20 09:15 NW 5 8.00 Fair CLR 68 59 73% 29.96 0.0
20 08:55 N 6 9.00 Fair CLR 66.2 59 78% 29.96 0.0
20 08:35 Vrbl 6 9.00 Fair CLR 66.2 59 78% 29.96 0.0
20 08:15 N 5 9.00 Fair CLR 64.4 59 83% 29.96 0.0
20 07:55 N 6 8.00 Fair CLR 64.4 59 83% 29.95 0.0
20 07:35 N 3 8.00 Fair CLR 64.4 59 83% 29.94 0.0
20 07:15 N 3 8.00 Fair CLR 64.4 59 83% 29.94 0.0
20 06:55 N 3 9.00 Fair CLR 62.6 57.2 83% 29.93 0.0
20 06:35 N 5 8.00 Fair CLR 62.6 57.2 83% 29.93 0.0
20 06:15 N 6 7.00 Fair CLR 62.6 57.2 83% 29.92 0.0
20 05:55 N 5 9.00 Fair CLR 62.6 57.2 83% 29.92 0.0
20 05:35 N 6 9.00 A Few Clouds FEW120 62.6 57.2 83% 29.92 0.0
20 05:15 N 7 9.00 Partly Cloudy SCT120 62.6 57.2 83% 29.92 0.0
20 04:55 N 5 9.00 A Few Clouds FEW120 62.6 57.2 83% 29.92 0.0
20 04:35 Calm 9.00 A Few Clouds FEW120 62.6 57.2 83% 29.91 0.0
20 04:15 Calm 9.00 Partly Cloudy SCT120 62.6 57.2 83% 29.91 0.0
20 03:55 Calm 10.00 Fair CLR 62.6 57.2 83% 29.92 0.0
20 03:35 N 5 9.00 Fair CLR 62.6 57.2 83% 29.92 0.0
20 03:15 N 5 9.00 Fair CLR 64.4 57.2 78% 29.92 0.0
20 02:55 Calm 9.00 Fair CLR 64.4 59 83% 29.92 0.0
20 02:35 Calm 9.00 Fair CLR 64.4 59 83% 29.93 0.0
20 02:15 Calm 9.00 Fair CLR 64.4 59 83% 29.93 0.0
20 01:55 N 6 9.00 Fair CLR 64.4 59 83% 29.94 0.0
20 01:35 NW 3 9.00 Fair CLR 64.4 59 83% 29.94 0.0
20 01:15 NW 5 9.00 Fair CLR 64.4 57.2 78% 29.94 0.0
20 00:55 NW 3 9.00 Fair CLR 64.4 59 83% 29.94 0.0
20 00:35 N 7 9.00 Fair CLR 64.4 57.2 78% 29.95 0.0
20 00:15 NW 8 9.00 Fair CLR 66.2 59 78% 29.95 0.0
19 23:55 NW 10 9.00 Fair CLR 66.2 59 78% 29.95 0.0
19 23:35 NW 10 9.00 Fair CLR 66.2 57.2 73% 29.95 0.0
19 23:15 N 13 9.00 Fair CLR 66.2 57.2 73% 29.96 0.0
19 22:55 N 10 9.00 Fair CLR 66.2 57.2 73% 29.95 0.0
19 22:35 NW 10 G 16 9.00 Fair CLR 68 59 73% 29.96 0.0
19 22:15 N 13 10.00 Fair CLR 68 59 73% 29.96 0.0
19 21:55 N 9 10.00 Fair CLR 69.8 59 69% 29.95 0.0
19 21:35 NW 6 10.00 Fair CLR 69.8 57.2 64% 29.95 0.0
19 21:15 NW 7 10.00 Fair CLR 69.8 59 69% 29.95 0.0
19 20:55 N 9 10.00 Fair CLR 71.6 57.2 61% 29.94 0.0
19 20:35 N 9 10.00 Fair CLR 71.6 57.2 61% 29.93 0.0
19 20:15 NW 9 10.00 Fair CLR 73.4 55.4 53% 29.93 0.0
19 19:55 NW 7 10.00 Fair CLR 73.4 57.2 57% 29.92 0.0
19 19:30 N 10 10.00 Fair CLR 75.2 57.2 54% 78 29.92 0.0
19 19:15 NW 12 10.00 Fair CLR 75.2 57.2 54% 78 29.92 0.0
19 18:55 N 13 G 21 10.00 Fair CLR 77 55.4 47% 79 29.91 0.0
19 18:35 N 14 G 20 10.00 Fair CLR 77 59 54% 79 29.9 0.0
19 18:15 N 15 10.00 Fair CLR 78.8 57.2 48% 80 29.9 0.0
19 17:55 N 14 10.00 Fair CLR 80.6 57.2 45% 81 29.9 0.0
19 17:35 N 13 10.00 Fair CLR 82.4 59 45% 82 29.9 0.0
19 17:15 N 15 10.00 Fair CLR 84.2 57.2 40% 83 29.9 0.0
19 16:55 N 14 10.00 Fair CLR 84.2 57.2 40% 83 29.91 0.0
19 16:35 N 13 G 18 10.00 Fair CLR 84.2 57.2 40% 83 29.91 0.0
19 16:15 N 15 10.00 Fair CLR 84.2 57.2 40% 83 29.92 0.0
19 15:55 N 15 10.00 Fair CLR 84.2 57.2 40% 83 29.92 0.0
19 15:35 N 14 10.00 Fair CLR 86 57.2 38% 85 29.93 0.0
19 15:15 N 12 10.00 Fair CLR 86 57.2 38% 85 29.93 0.0
19 14:55 N 14 10.00 Fair CLR 86 59 40% 85 29.94 0.0
19 14:35 N 13 10.00 Fair CLR 86 55.4 35% 85 29.95 0.0
19 14:15 N 13 10.00 Fair CLR 84.2 55.4 37% 83 29.95 0.0
19 13:55 N 10 10.00 Fair CLR 87.8 59 38% 87 29.95 0.0
19 13:15 NW 8 10.00 Fair CLR 86 55.4 35% 85 29.96 0.0
19 12:55 N 8 10.00 Fair CLR 80.6 57.2 45% 81 29.97 0.0
19 12:35 N 8 10.00 Fair CLR 78.8 59 51% 80 29.98 0.0
19 12:15 N 7 10.00 Fair CLR 77 59 54% 79 29.98 0.0
19 11:55 N 8 10.00 Fair CLR 77 55.4 47% 79 29.99 0.0
19 11:35 N 10 10.00 Fair CLR 75.2 59 57% 78 29.99 0.0
19 11:15 N 6 10.00 Fair CLR 75.2 59 57% 78 29.99 0.0
19 10:55 N 6 10.00 Fair CLR 73.4 59 61% 29.99 0.0
19 10:35 N 6 10.00 Fair CLR 71.6 59 65% 30 0.0
19 10:15 Calm 10.00 Fair CLR 71.6 59 65% 30 0.0
19 09:55 N 3 10.00 Fair CLR 69.8 59 69% 30 0.0
19 09:35 Calm 10.00 Fair CLR 68 59 73% 30.01 0.0
19 09:15 Calm 10.00 Fair CLR 66.2 57.2 73% 30.01 0.0
19 08:55 Calm 10.00 Fair CLR 66.2 57.2 73% 30.01 0.0
19 08:35 N 3 10.00 Fair CLR 64.4 57.2 78% 30.01 0.0
19 08:15 N 5 10.00 Fair CLR 64.4 57.2 78% 30.01 0.0
19 07:55 Calm 10.00 Fair CLR 62.6 57.2 83% 30.01 0.0
19 07:35 Calm 10.00 Fair CLR 62.6 57.2 83% 30.01 0.0
19 07:15 Calm 10.00 Fair CLR 62.6 57.2 83% 30.01 0.0
19 06:55 Calm 8.00 Fair CLR 60.8 57.2 88% 30 0.0
19 06:35 Calm 9.00 Fair CLR 60.8 57.2 88% 30 0.0
19 06:15 Calm 10.00 Fair CLR 60.8 57.2 88% 29.99 0.0
19 05:55 Calm 10.00 Fair CLR 60.8 57.2 88% 29.99 0.0
19 05:35 Calm 10.00 Fair CLR 60.8 57.2 88% 29.99 0.0
19 05:15 Calm 10.00 Fair CLR 60.8 57.2 88% 29.99 0.0
19 04:50 Calm 10.00 Fair CLR 60.8 57.2 88% 29.99 0.0
19 04:35 Calm 10.00 Fair CLR 60.8 57.2 88% 29.99 0.0
19 04:15 W 3 10.00 Fair CLR 62.6 55.4 77% 29.99 0.0
19 03:50 Calm 10.00 Fair CLR 62.6 55.4 77% 29.99 0.0
19 03:35 Calm 10.00 Fair CLR 62.6 55.4 77% 29.99 0.0
19 03:15 Calm 10.00 Fair CLR 62.6 57.2 83% 29.99 0.0
19 02:50 Calm 10.00 Fair CLR 62.6 57.2 83% 29.99 0.0
19 02:35 NE 5 10.00 Fair CLR 62.6 57.2 83% 29.99 0.0
19 02:15 N 5 10.00 Fair CLR 62.6 57.2 83% 30 0.0
19 01:55 N 3 10.00 Fair CLR 62.6 57.2 83% 30 0.0
19 01:35 N 5 10.00 Fair CLR 62.6 57.2 83% 30 0.0
19 01:15 N 5 10.00 Fair CLR 62.6 57.2 83% 30.01 0.0
19 00:55 Calm 10.00 Fair CLR 64.4 57.2 78% 30.01 0.0
19 00:35 Calm 10.00 Fair CLR 64.4 57.2 78% 30.02 0.0
19 00:15 Calm 10.00 Fair CLR 64.4 57.2 78% 30.01 0.0
18 23:55 Calm 10.00 Fair CLR 64.4 57.2 78% 30.02 0.0
18 23:35 W 3 10.00 Fair CLR 64.4 55.4 73% 30.02 0.0
18 23:15 W 3 10.00 Fair CLR 64.4 55.4 73% 30.02 0.0
18 22:55 Vrbl 3 10.00 Fair CLR 64.4 55.4 73% 30.02 0.0
18 22:35 NW 5 10.00 Fair CLR 64.4 55.4 73% 30.02 0.0
18 22:10 NW 8 10.00 Fair CLR 66.2 55.4 68% 30.02 0.0
18 21:55 NW 8 10.00 Fair CLR 66.2 57.2 73% 30.02 0.0
18 21:35 N 8 10.00 Fair CLR 66.2 57.2 73% 30.02 0.0
18 21:10 N 12 10.00 Fair CLR 66.2 57.2 73% 30.01 0.0
18 20:55 NW 7 10.00 Fair CLR 66.2 57.2 73% 30.01 0.0
18 20:35 N 8 10.00 Fair CLR 68 57.2 69% 30 0.0
18 20:15 N 8 10.00 Fair CLR 68 57.2 69% 30 0.0
18 19:55 N 12 10.00 Fair CLR 69.8 57.2 64% 30 0.0
18 19:35 N 9 10.00 Fair CLR 68 59 73% 29.99 0.0
18 19:15 NW 8 10.00 Fair CLR 69.8 59 69% 29.99 0.0
18 18:55 N 12 10.00 Fair CLR 69.8 57.2 64% 29.98 0.0
18 18:35 N 13 10.00 Fair CLR 69.8 59 69% 29.98 0.0
18 18:15 N 15 10.00 Fair CLR 69.8 57.2 64% 29.97 0.0
18 17:55 N 15 10.00 Fair CLR 71.6 57.2 61% 29.97 0.0
18 17:35 N 17 10.00 Fair CLR 71.6 57.2 61% 29.97 0.0
18 17:15 N 10 G 21 10.00 Fair CLR 73.4 59 61% 29.97 0.0
18 16:55 N 14 10.00 Fair CLR 73.4 59 61% 29.97 0.0
18 16:35 N 16 10.00 Fair CLR 73.4 59 61% 29.97 0.0
18 16:15 N 12 G 17 10.00 Fair CLR 75.2 59 57% 78 29.97 0.0
18 15:55 N 10 10.00 Fair CLR 77 60.8 57% 79 29.98 0.0
18 15:35 N 12 10.00 Fair CLR 77 60.8 57% 79 29.97 0.0
18 15:15 N 13 10.00 Fair CLR 77 60.8 57% 79 29.98 0.0
18 14:55 N 14 10.00 Fair CLR 77 60.8 57% 79 29.98 0.0
18 14:30 N 12 10.00 Fair CLR 77 60.8 57% 79 29.98 0.0
18 14:10 N 10 10.00 Fair CLR 75.2 60.8 61% 77 29.99 0.0
18 13:50 N 12 10.00 Fair CLR 77 60.8 57% 79 29.99 0.0
18 13:30 N 9 10.00 Fair CLR 75.2 60.8 61% 77 29.99 0.0
18 13:15 N 8 10.00 Fair CLR 75.2 60.8 61% 77 30 0.0
18 12:55 N 8 10.00 Fair CLR 73.4 60.8 65% 30 0.0
18 12:35 N 9 10.00 Fair CLR 71.6 60.8 69% 30.01 0.0
18 12:15 N 8 10.00 Fair CLR 71.6 60.8 69% 30.01 0.0
18 11:55 N 9 10.00 Fair CLR 71.6 59 65% 30.01 0.0
18 11:35 N 8 10.00 Fair CLR 71.6 59 65% 30.01 0.0
18 11:15 N 5 10.00 Fair CLR 69.8 59 69% 30.01 0.0
18 10:55 N 7 6.00 Fair with Haze CLR 69.8 59 69% 30.01 0.0
18 10:30 Vrbl 3 5.00 Fair with Haze CLR 68 59 73% 30.01 0.0
18 10:15 Vrbl 6 10.00 Fair CLR 66.2 59 78% 30.01 0.0
18 09:55 N 6 10.00 Fair CLR 66.2 59 78% 30.01 0.0
18 09:35 Vrbl 3 9.00 Fair CLR 66.2 57.2 73% 30.01 0.0
18 09:10 Vrbl 5 10.00 Fair CLR 64.4 57.2 78% 30.01 0.0
18 08:50 Calm 10.00 A Few Clouds FEW011 62.6 57.2 83% 30.01 0.0
18 08:35 N 5 10.00 Partly Cloudy SCT010 62.6 57.2 83% 30.01 0.0
18 08:15 N 3 10.00 NULL NULL 60.8 57.2 88% 30.01 0.0
18 07:50 N 5 10.00 Mostly Cloudy BKN010 62.6 57.2 83% 30 0.0
18 07:30 Calm 10.00 Overcast OVC010 60.8 57.2 88% 30 0.0
18 07:10 N 3 10.00 Overcast OVC010 60.8 57.2 88% 30 0.0
18 06:50 N 5 10.00 Overcast OVC010 60.8 57.2 88% 29.99 0.0
18 06:30 Calm 9.00 Overcast OVC010 60.8 57.2 88% 30 0.0
18 06:10 Calm 9.00 Overcast OVC010 60.8 57.2 88% 30 0.0
18 05:50 Calm 10.00 Overcast OVC010 60.8 57.2 88% 30 0.0
18 05:30 N 5 10.00 Overcast OVC010 60.8 57.2 88% 30 0.0
18 05:10 NE 6 10.00 Overcast OVC009 60.8 57.2 88% 29.99 0.0
18 04:50 Vrbl 5 10.00 Overcast OVC009 60.8 57.2 88% 29.99 0.0
18 04:30 Calm 10.00 Overcast OVC009 60.8 57.2 88% 29.98 0.0
18 04:10 Calm 10.00 Overcast OVC009 60.8 57.2 88% 29.98 0.0
18 03:50 Calm 10.00 Overcast OVC008 60.8 57.2 88% 29.98 0.0
18 03:30 NE 5 10.00 Overcast OVC008 60.8 57.2 88% 29.99 0.0
18 03:10 N 8 10.00 Overcast OVC009 60.8 57.2 88% 29.99 0.0
18 02:50 N 6 10.00 Overcast OVC009 60.8 57.2 88% 29.99 0.0
18 02:30 N 8 10.00 Overcast OVC009 60.8 57.2 88% 29.99 0.0
18 02:10 Vrbl 3 10.00 Mostly Cloudy BKN009 60.8 57.2 88% 29.99 0.0
18 01:50 N 7 10.00 A Few Clouds FEW010 60.8 57.2 88% 30 0.0
18 01:30 N 7 10.00 A Few Clouds FEW010 60.8 57.2 88% 30 0.0
18 01:10 N 8 10.00 A Few Clouds FEW010 60.8 57.2 88% 30 0.0
18 00:50 N 8 10.00 Fair CLR 60.8 57.2 88% 30 0.0
18 00:30 N 10 10.00 Fair CLR 60.8 57.2 88% 30.01 0.0
18 00:10 N 8 10.00 Fair CLR 60.8 57.2 88% 30.01 0.0
17 23:50 N 9 10.00 Fair CLR 62.6 57.2 83% 30.01 0.0
17 23:30 N 8 10.00 Fair CLR 62.6 57.2 83% 30 0.0
17 23:10 N 9 10.00 Fair CLR 62.6 57.2 83% 30.01 0.0
17 22:50 N 10 10.00 Fair CLR 62.6 59 88% 30.01 0.0
17 22:30 N 12 10.00 Fair CLR 62.6 59 88% 30.01 0.0
17 22:10 N 13 10.00 Fair CLR 64.4 57.2 78% 30.01 0.0
17 21:50 N 10 10.00 Fair CLR 64.4 57.2 78% 30.01 0.0
17 21:30 N 9 10.00 Fair CLR 64.4 57.2 78% 30.01 0.0
17 21:10 N 9 10.00 Fair CLR 64.4 57.2 78% 30 0.0
17 20:50 N 10 10.00 Fair CLR 64.4 57.2 78% 30 0.0
17 20:30 N 13 10.00 Fair CLR 66.2 57.2 73% 29.99 0.0
17 20:10 N 14 10.00 Fair CLR 66.2 59 78% 29.99 0.0
17 19:50 N 13 G 18 10.00 Fair CLR 66.2 59 78% 29.99 0.0
17 19:30 N 13 10.00 Fair CLR 68 59 73% 29.99 0.0
Date Time (pdt) Wind (mph) Vis. (mi.) Weather Sky Cond. Air Dwpt Max. Min. Relative Humidity Wind Chill (°F) Heat Index (°F) altimeter (in) sea level (mb) 1 hr 3 hr 6 hr
6 hour
Temperature (ºF) Pressure Precipitation (in)